Flag for Morocco Weather past 2 weeks in Casablanca, Morocco

Now
75 °F

Partly sunny.


Feels Like: 76 °F
Forecast: 72 / 77 °F
Wind: 14 mph from North

Location: Casablanca Airport

Current Time: Jul 31, 2015 at 9:31:40 AM

Latest Report: Jul 31, 2015 at 9:00 AM


Visibility: N/A

Pressure: 29.86 "Hg

Humidity: 78%

Dew point: 68 °F

Location of CasablancaLocation

Historic Weather in Casablanca — Graph

°F

Casablanca temperature yesterday

Maximum temperature yesterday: 79 °F (at 1:00 PM)
Minimum temperature yesterday: 72 °F (at 2:00 AM)
Average temperature yesterday: 75 °F

Past Weeks' High & Low Weather Summary

 TemperatureHumidityPressure
High86 °F (Jul 16, 5:00 PM)100% (Jul 23, 7:00 AM)30.04 "Hg (Jul 23, 7:00 AM)
Low70 °F (Jul 17, 6:00 AM)31% (Jul 21, 12:00 PM)29.83 "Hg (Jul 30, 7:00 PM)
Average76 °F78%29.94 "Hg
* Reported Jul 16 8:00 AM — Jul 31 8:00 AM, Casablanca, Weather by CustomWeather, © 2015

Note: Actual official high and low records may vary slightly from our data, if they occured in-between our weather recording intervals... More about our weather records

Advertising

Casablanca weather history for previous 24 hours

 ConditionsComfort  
Time TempWeatherWind HumidityBarometerVisibility
8:00 AM
Fri, Jul 31
72 °FPartly sunny.5 mph88%29.83 "HgN/A
7:00 AM72 °FPartly sunny.5 mph83%29.83 "HgN/A
1:00 AM73 °FPassing clouds.9 mph83%29.86 "HgN/A
12:00 AM73 °FPassing clouds.9 mph83%29.86 "HgN/A
11:00 PM
Thu, Jul 30
73 °FPassing clouds.12 mph83%29.86 "HgN/A
10:00 PM73 °FPassing clouds.12 mph83%29.86 "HgN/A
9:00 PM73 °FPassing clouds.12 mph89%29.83 "HgN/A
8:00 PM75 °FPartly sunny.12 mph83%29.83 "HgN/A
7:00 PM75 °FPartly sunny.12 mph83%29.83 "HgN/A
6:00 PM75 °FPartly sunny.12 mph74%29.89 "HgN/A
5:00 PM77 °FPartly sunny.12 mph69%29.89 "HgN/A
4:00 PM77 °FPartly sunny.12 mph69%29.92 "HgN/A
3:00 PM79 °FPartly sunny.12 mph70%29.92 "HgN/A
2:00 PM79 °FPartly sunny.12 mph70%29.92 "HgN/A
1:00 PM79 °FPartly sunny.12 mph70%29.92 "HgN/A
12:00 PM77 °FPartly sunny.12 mph74%29.92 "HgN/A
11:00 AM75 °FPartly sunny.12 mph78%29.95 "HgN/A
10:00 AM75 °FPartly sunny.7 mph78%29.95 "HgN/A
Weather by CustomWeather, © 2015

See weather overviewHow to use our weather pages